Location: Newark
(41.9000°N, 12.4833°E)
Time: 06:09:14
(UTC+00:00)

NOAA 18 - Pass Details

Date: 27 May 2019
Orbit: 840 x 861 km, 99.1° (Epoch: 19 June)

Event Time Altitude Azimuth Distance (km) Brightness Sun altitude
Exits shadow 19:41:15 - 181° (S) 3,438 8.0 -10.9°
Rises 19:41:18 0° 181° (S) 3,418 8.0 -10.9°
Reaches altitude 10° 19:43:46 10° 188° (S) 2,488 7.3 -11.2°
Maximum altitude 19:49:03 46° 261° (W) 1,145 6.2 -11.9°
Drops below altitude 10° 19:54:24 10° 334° (NNW) 2,508 8.9 -12.6°
Sets 19:56:54 0° 340° (NNW) 3,449 9.7 -13.0°
